sat.trackr.live / text

‹ back to catalog

TRANSPORTER-15 OBJECT CZ

NORAD 66761 · 2025-276CZ

PAYLOAD ACTIVE UNKNOWN

§ Identity

Operator
Country
TBD
Launch date
2025-11-28
Launch site
AFWTR
Launch vehicle
Mass (kg)
RCS (m²)

External: N2YO · Heavens-Above · Gunter

§ Orbital elements

Epoch: 2026-05-25T03:58:09.739200Z

Period
94.62 min
Inclination
97.4189°
Eccentricity
0.0001612
Mean motion
15.21859245 rev/d
Perigee alt
499.1 km
Apogee alt
501.3 km
Semi-major
6,878.4 km
B*
4.0508e-4
RAAN
219.5042°
Arg perigee
75.7533°
Mean anomaly
284.3882°
Rev number
2,695

§ Raw data

TRANSPORTER-15 OBJECT CZ1 66761U 25276CZ  26145.16539050  .00009146  00000+0  40508-3 0  99942 66761  97.4189 219.5042 0001612  75.7533 284.3882 15.21859245 26958

JSON: /api/v1/satellites/66761 · /tle

For live sub-satellite position, see the globe view (requires WebGL).

§ Visibility from observer

Set your observer location to see the next 7 days of passes ≥ 10°. The values pass through the URL so the page stays shareable.

No JS? Fill the form by hand. The geolocation button needs JavaScript.